STARLINK-4102

operational
NORAD ID: 53143 Int'l Des: 2022-083 Owner: SPXS Country: US Constellation: starlink
LEOCIRCULAR

Über STARLINK-4102

Beschreibung wird geladen...

Live-Position

3D-Globus wird geladen...

Nächste Überflüge

Höhenverlauf

Altitude vs Time

uPlot chart will show altitude changes over time

Zweizeiliger Elementsatz

1 53143U 22083M 25251.74631435 -.00000717 00000-0 -26975-4 0 9999
2 53143 53.2174 270.8976 0001347 92.7800 267.3346 15.08834880173759
Epoch: 8. Sept. 2025 • Age: 16 hours

Aktueller Status

Höhe 544.6 km
Geschwindigkeit 7.60 km/s
Subsatellitenpunkt 49.46°N, 115.61°W
Startdatum 17. Juli 2022
Alter 3.1 years
Typ internet

Technische Details

Klassifizierung Payload
Masse 297.00 kg
Trockenmasse 275.00 kg
Gesamtmasse 297.00 kg
Länge 0.20 m
Durchmesser 2.80 m
Spannweite 9.00 m
Form Box + pan
Hersteller SPXS
Bus-Typ Starlink
Phasenstatus In Orbit
Besitzer/Staat SPXS/US

Große Konstellationen

Loading constellations...